Location: Grums
(59.3529°N, 13.1129°E)
Time: 01:41:29
(UTC+01:00)

SEEDS - Pass Details

Date: 07 December 2021
Orbit: 584 x 600 km, 97.6° (Epoch: 27 January)

Event Time Altitude Azimuth Distance (km) Brightness Sun altitude
Rises 04:05:58 0° 20° (NNE) 2,828 ? -33.6°
Reaches altitude 10° 04:08:21 10° 31° (NNE) 1,921 ? -33.3°
Enters shadow 04:09:46 18° 45° (NE) 1,450 ? -33.1°
